User: anonymous   Login
Location: Ebendorf
(52.1827°N, 11.5706°E)
Time: 14:52:26
(UTC+00:00)
Language:

Cosmos 2233 Rocket - Orbit

View from above orbital plane
View from above orbital plane
View from above satellite
View from above satellite

Ground track
Ground track

The orbit data is extracted from the following two-line orbital elements,

1 22488U 93008B   21214.79984594 -.00000080  00000-0 -94772-4 0  9992
2 22488  82.9411  36.4800 0024572 322.7450  48.2577 13.77731575431563
Epoch (UTC): 02 August 2021 19:11:46
Eccentricity: 0.0024572
inclination: 82.9411°
perigee height: 954 km
apogee height: 990 km
right ascension of ascending node: 36.4800°
argument of perigee: 322.7450°
revolutions per day: 13.77731575
mean anomaly at epoch: 48.2577°
orbit number at epoch: 43156

The dashed part of the orbit path shows where the satellite is in the earth's shadow,  

DLR